Regional Weather Roundup
Issued by NWS Midland/Odessa, TX

Skip options and go directly to product.
Home | Oldest Version | Previous Version | Current Version | All | Text Only | Save Text | Print | Product List | Glossary Off

Skip product version selection by date and time.   

450
ASUS44 KMAF 311601
RWRMAF
MIDLAND AREA WEATHER ROUNDUP
NATIONAL WEATHER SERVICE MIDLAND TX
1100 AM CDT TUE MAY 31 2016

...IN SOUTHWEST TEXAS AND SOUTHEAST NEW MEXICO...

CITY           SKY/WX    TMP DP  RH WIND       PRES   REMARKS
ALPINE         CLOUDY    56  55  95 SE13      30.08F THUNDER
ANDREWS        FAIR      70  58  66 SE3       29.96F
ARTESIA        SUNNY     73  57  56 SW5       29.96F
BIG SPRING     MOSUNNY   73  64  73 S3        29.98F
CARLSBAD       MOSUNNY   76  53  44 S17       29.93F
DRYDEN           N/A     69  64  84 N8        29.97R
FORT STOCKTON  NOT AVBL
GUAD PASS      NOT AVBL
HOBBS          SUNNY     72  54  53 SW14      29.98S
MARFA          CLOUDY    68  56  65 CALM      30.07R
MIDLAND AIRPK  CLOUDY    78  57  48 SW6       29.96F
MIDLAND INTL   PTSUNNY   77  55  46 SW8       29.95S
ODESSA         CLOUDY    74  55  51 S6        29.96S
PECOS          CLOUDY    72  59  64 S14       29.92F
PRESIDIO       PTSUNNY   67  63  85 NE5       29.99F
SEMINOLE       PTSUNNY   71  56  60 W7        29.98S
SNYDER           N/A     75  64  68 W6        29.96S
WINK           CLOUDY    76  52  43 W12       29.91R
$$
...OTHER STATIONS IN TEXAS...

CITY           SKY/WX    TMP DP  RH WIND       PRES   REMARKS
ABILENE        CLOUDY    76  67  73 S9        29.94F
AMARILLO       CLOUDY    66  54  65 E10       30.05S
AUSTIN         CLOUDY    80  74  81 S9        29.90F
BROWNSVILLE    CLOUDY    84  75  74 SE13      29.88S
CORPUS CHRISTI PTSUNNY   85  75  72 SE15      29.88R
DALLAS FTW     CLOUDY    81  71  71 SW9       29.90F
DEL RIO        LGT RAIN  73  71  93 SE10      29.89S FOG
EL PASO        MOSUNNY   73  54  51 S12       29.98F
HOUSTON INT    PTSUNNY   83  69  62 S5        29.92F
LUBBOCK        PTSUNNY   72  58  61 NE16      30.00F
SAN ANGELO     CLOUDY    76  67  73 SE3       29.94F
SAN ANTONIO    CLOUDY    81  73  76 SE10      29.91S
WACO           CLOUDY    80  71  74 S9        29.91F
WICHITA FALLS  NOT AVBL
$$
...OTHER LOCATIONS IN NEW MEXICO...

CITY           SKY/WX    TMP DP  RH WIND       PRES   REMARKS
ALAMAGORDO     SUNNY     73  46  38 S7        30.01S
ALBUQUERQUE    PTSUNNY   70  44  39 SW9       30.04S
CANNON AFB     DRIZZLE   66  54  63 E21G26    30.05R
CLOVIS         CLOUDY    66  54  63 E17G24    30.05S
HOLLOMAN AFB   NOT AVBL
ROSWELL        SUNNY     74  50  42 CALM      29.95F
RUIDOSO          N/A     63  43  48 NW6       30.14S
SANTA FE       SUNNY     69  30  23 VRB3      30.09F
TRUTH OR CONSE SUNNY     70  50  49 SW9       30.01F
TUCUMCARI      CLOUDY    65  54  67 E12       30.02R
$$

USA.gov is the U.S. government's official web portal to all federal, state and local government web resources and services.